Regional Weather Roundup
Issued by NWS Burlington, VT

Home | Current Version | Previous Version | Text Only | Print | Product List | Glossary On
Versions: 1 2 3 4 5 6 7 8 9 10 11 12 13 14 15 16 17 18 19 20 21 22 23 24 25 26 27 28 29 30 31 32 33 34 35 36 37 38 39 40 41 42 43 44 45 46 47 48 49 50
000
ASUS41 KBTV 122130
RWRBTV
VERMONT REGIONAL WEATHER ROUNDUP
NATIONAL WEATHER SERVICE BURLINGTON VT
400 PM EST FRI FEB 12 2016

NOTE: "FAIR" INDICATES FEW OR NO CLOUDS BELOW 12,000 FEET WITH NO
SIGNIFICANT WEATHER AND/OR OBSTRUCTIONS TO VISIBILITY.

* THESE REPORTS ARE NOT UNDER NWS QUALITY CONTROL AND/OR DO NOT
  REPORT WEATHER SUCH AS PRECIPITATION AND FOG.

VTZ001>019-122200-
_____VERMONT_____


CITY           SKY/WX    TMP DP  RH WIND       PRES   REMARKS
BURLINGTON     FAIR      22   4  46 S17G23    29.89F WCI   8
MONTPELIER     PTSUNNY   18   1  47 S8G18     29.90F WCI   8
MORRISVILLE    FAIR      21   1  41 S9        29.89S WCI  11
ST. JOHNSBURY*   N/A     19   0  43 MISG      29.89F
LYNDONVILLE*   FAIR      15   1  53 SE8       29.88S WCI   5
RUTLAND*       FAIR      19   0  42 S8        29.91F WCI   9
SPRINGFIELD    FAIR      21  -1  38 SW7       29.95F WCI  12
HIGHGATE*      FAIR      20   4  50 S8        29.87F WCI  11
NEWPORT*       FAIR      17   1  50 S8        29.86F WCI   6
BENNINGTON     FAIR      21  -1  38 S7        29.93F WCI  12
SUTTON*          N/A     14 N/A N/A MISG        N/A
MT. MANSFIELD*   N/A     10 N/A N/A W20         N/A  WCI  -8

_____LAKE CHAMPLAIN_____


CITY           SKY/WX    TMP DP  RH WIND       PRES   REMARKS
COLCHESTER RF*   N/A     23  12  63 S30         N/A  WCI   5
DIAMOND ISL*     N/A     25  10  54 S23         N/A  WCI  10

$$

NYZ007-026>031-035-052-083-122200-
_____NORTHERN NEW YORK_____


CITY           SKY/WX    TMP DP  RH WIND       PRES   REMARKS
PLATTSBURGH    PTSUNNY   21   7  54 S21G26    29.86F WCI   5
SARANAC LAKE   CLOUDY    17   5  59 SW17      29.74S WCI   1
MASSENA        SNOW      21  16  81 SW13      29.83S VSB 1/2 WCI   9
OGDENSBURG*    SNOW      21  19  93 SW8       29.80F VSB 0   WCI  12
WATERTOWN      CLOUDY    24  13  62 SW16G29   29.82F HAZE    WCI  11
ALBANY         CLOUDY    24   2  38 S12       29.97F WCI  13
GLENS FALLS    SUNNY     22   4  46 S14G20    29.94F WCI   9

$$
NHZ002-005-011-122200-
_____NEW HAMPSHIRE_____


CITY           SKY/WX    TMP DP  RH WIND       PRES   REMARKS
LEBANON        CLOUDY    22   0  38 SW10      29.93S WCI  11
MT WASHINGTON  FOG       -8  -8 100 W30         N/A  VSB 1/16WCI -36
PLYMOUTH       CLOUDY    21   3  44 CALM      29.94F
WHITEFIELD     MOSUNNY   19   0  43 SW7       29.88F WCI  10

$$

_____REGIONAL QUEBEC LOCATIONS_____


CITY           SKY/WX    TMP DP  RH WIND       PRES   REMARKS
MONTREAL       LGT SNOW  19  12  73 SE13      29.83F VSB 1   WCI   7
QUEBEC CITY    CLOUDY     7  -4  61 VRB2      29.94F
SHERBROOKE     SUNNY     16   1  53 S7        29.87F WCI   6

_____REGIONAL ONTARIO LOCATIONS_____


CITY           SKY/WX    TMP DP  RH WIND       PRES   REMARKS
OTTAWA         PTSUNNY   23  16  74 S13G18    29.74F WCI  11

______KEY______
VSB  - VISIBILITY IN MILES
WCI  - WIND CHILL INDEX
HX   - HEAT INDEX
$$
NNNN



USA.gov is the U.S. government's official web portal to all federal, state and local government web resources and services.